SCP
0 0 0 0 0 0 0 0 0 0 0 0 0 0 0 0 0 0 0 0 0 0 0 0 0 0 0 0 0 0 0 0 0 0 0 0 0 0
0 0 0 0 0 0 0 0 0 0 0 0 0 0 0 0 0 0 0 0 0 0 0 0 0 0 0 0 0 0 0 0 0 0 0 0 0 0
0 0 0 0 0 0 0 0 0 0 0 0 0 0 0 0 0 0 0 0 0 0 0 0 0 0 0 0 0 0 0 0 0 0 0 0 0 0
0 0 0 0 0 0 0 0 0 0 0 0 0 0 0 0 0 0 0 0 0 0 0 0 0 0 0 0 0 0 0 0 0 0 0 0 0 0
0 0 0 0 0 0 0 0 0 0 0 0 0 0 0 0 0 0 0 0 0 0 0 0 0 0 0 0 0 0 0 0 0 0 0 0 0 0
0 0 0 0 0 0 0 0 0 0 0 0 0 0 0 0 0 0 0 0 0 0 0 0 0 0 0 0 0 0 0 0 0 0 0 0 0 0
0 0 0 0 0 0 0 0 0 0 0 0 0 0 0 0 0 0 0 0 0 0 0 0 0 0 0 0 0 0 0 0 0 0 0 0 0 0
0 0 0 0 0 0 0 0 0 0 0 0 0 0 0 0 0 0 0 0 0 0 0 0 0 0 0 0 0 0 0 0 0 0 0 0 0 0
0 0 0 0 0 0 0 0 0 0 0 0 0 0 0 0 0 0 0 0 0 0 0 0 0 0 0 0 0 0 0 0 0 0 0 0 0 0
0 0 0 0 0 0 0 0 0 0 0 0 0 0 0 0 0 0 0 0 0 0 0 0 0 0 0 0 0 0 0 0 0 0 0 0 0 0
0 0 0 0 0 0 0 0 0 0 0 0 0 0 0 0 0 0 0 0 0 0 0 0 0 0 0 0 0 0 0 0 0 0 0 0 0 0
0 0 0 0 0 0 0 0 0 0 0 0 0 0 0 0 0 0 0 0 0 0 0 0 0 0 0 0 0 0 0 0 0 0 0 0 0 0
0 0 0 0 0 0 0 0 0 0 0 0 0 0 0 0 0 0 0 0 0 0 0 0 0 0 0 0 0 0 0 0 0 0 0 0 0 0
0 0 0 0 0 0 0 0 0 0 0 0 0 0 0 0 0 0 0 0 0 0 0 0 0 0 0 0 0 0 0 0 0 0 0 0 0 0
0 0 0 0 0 0 0 0 0 0 0 0 0 0 0 0 0 0 0 0 0 0 0 0 0 0 0 0 0 0 0 0 0 0 0 0 0 0
0 0 0 0 0 0 0 0 0 0 0 0 0 0 0 0 0 0 0 0 0 0 0 0 0 0 0 0 0 0 0 0 0 0 0 0 0 0
0 0 0 0 0 0 0 0 0 0 0 0 0 0 0 0 0 0 0 0 0 0 0 0 0 0 0 0 0 0 0 0 0 0 0 0 0 0
0 0 0 0 0 0 0 0 0 0 0 0 0 0 0 0 0 0 0 0 0 0 0 0 0 0 0 0 0 0 0 0 0 0 0 0 0 0
0 0 0 0 0 0 0 0 0 0 0 0 0 0 0 0 0 0 0 0 0 0 0 0 0 0 0 0 0 0 0 0 0 0 0 0 0 0
0 0 0 0 0 0 0 0 0 0 0 0 0 0 0 0 0 0 0 0 0 0 0 0 0 0 0 0 0 0 0 0 0 0 0 0 0 0
0 0 0 0 0 0 0 0 0 0 0 0 0 0 0 0 0 0 0 0 0 0 0 0 0 0 0 0 0 0 0 0 0 0 0 0 0 0
0 0 0 0 0 0 0 0 0 0 0 0 0 0 0 0 0 0 0 0 0 0 0 0 0 0 0 0 0 0 0 0 0 0 0 0 0 0
0 0 0 0 0 0 0 0 0 0 0 0 0 0 0 0 0 0 0 0 0 0 0 0 0 0 0 0 0 0 0 0 0 0 0 0 0 0
Wind_Speed
4 4 3 2 2 2 2 4 4 3 3 2 2 2 2 2 2 2 3 3 2 2 2 2 2 2 2 3 3 3 4 4 5 5 6 6 7 7
3 4 3 2 3 2 2 2 2 3 3 2 2 2 2 2 2 2 2 3 3 3 3 2 2 2 2 3 3 3 3 4 5 6 6 7 7 7
4 5 4 3 3 3 2 2 2 2 3 2 1 1 2 3 2 2 2 2 3 4 4 4 3 3 3 4 4 4 4 4 5 6 7 7 8 7
6 6 5 4 4 4 3 3 3 2 3 3 2 2 3 3 3 2 2 1 2 4 5 4 5 4 4 4 4 5 5 5 5 6 7 7 8 8
7 7 6 6 5 4 4 4 3 3 2 3 3 2 2 2 2 2 2 2 2 3 4 4 5 5 5 5 5 5 5 5 6 6 6 7 8 8
6 6 6 7 7 6 5 5 3 3 3 3 2 2 2 2 2 2 2 2 2 2 3 3 5 5 5 6 6 6 6 6 6 7 6 7 8 9
5 5 6 6 7 6 5 5 5 3 3 3 3 2 2 2 3 2 2 2 3 2 2 2 3 3 4 5 6 6 6 7 7 7 7 7 8 8
6 5 5 6 7 7 7 7 6 5 5 4 4 5 5 4 3 3 2 2 3 2 2 3 2 3 3 3 5 6 6 6 7 7 6 6 7 8
6 5 4 5 6 5 6 6 6 7 7 5 5 6 6 5 5 4 4 4 4 3 2 3 2 4 3 4 6 6 6 6 5 5 6 6 7 8
5 6 6 5 5 5 5 5 4 5 5 5 5 5 4 4 5 5 4 2 2 2 2 3 3 3 3 3 6 6 6 6 5 5 6 6 7 8
5 5 6 5 7 7 6 5 4 4 4 5 5 5 6 6 4 3 3 3 3 3 2 2 2 2 2 3 4 5 5 6 6 7 7 6 6 6
4 4 7 7 8 8 6 6 6 4 3 2 2 3 3 4 5 4 4 4 2 3 2 2 1 1 2 2 2 2 3 6 7 7 7 6 6 3
3 3 3 7 8 8 7 5 6 4 3 3 2 1 2 2 3 3 3 3 3 3 2 2 2 2 2 2 2 2 2 2 3 4 5 6 6 4
3 2 3 5 6 6 5 5 5 4 2 2 2 2 2 2 2 2 3 3 3 4 4 3 2 3 2 2 3 2 2 2 2 3 2 5 6 7
2 3 4 5 5 4 4 5 4 2 2 2 2 2 2 2 2 1 1 2 1 2 3 3 3 3 3 3 3 2 2 2 2 2 2 3 3 3
1 2 3 3 3 2 2 2 2 2 3 3 2 2 1 1 2 2 2 2 1 2 2 2 3 4 3 3 3 3 3 3 2 3 3 3 2 2
2 1 1 1 1 1 1 1 1 2 2 2 2 2 2 2 2 2 2 2 2 2 2 1 1 1 2 3 3 4 3 3 3 3 3 3 3 3
2 2 1 1 2 2 2 1 1 2 2 2 2 2 2 2 2 2 2 2 3 3 2 2 1 1 1 2 4 4 3 3 3 3 2 3 4 3
0 1 1 1 1 2 2 2 2 2 1 2 2 2 2 2 2 2 2 2 3 3 2 2 2 2 3 4 3 3 3 3 2 3 3 3 5 5
1 1 0 0 1 1 1 1 1 1 1 2 2 2 2 2 2 3 3 3 3 3 2 2 3 3 4 4 3 3 4 3 3 3 3 3 4 5
1 1 0 0 0 1 1 1 1 2 1 2 2 2 2 2 3 3 3 4 3 3 4 4 4 3 1 0 2 3 3 4 4 3 3 3 3 3
1 1 1 1 1 1 1 1 1 1 2 2 2 2 2 2 3 3 3 3 3 3 3 2 1 1 1 3 4 4 3 3 3 4 4 5 3 4
1 1 1 1 1 1 1 1 1 2 2 2 2 2 2 2 2 3 2 2 2 2 2 2 2 2 2 3 3 3 3 3 2 2 3 5 7 8
Wind_Direction
197 200 201 203 194 184 172 170 169 190 222 221 213 211 206 202 209 204 215 230 237 249 259 271 271 282 292 294 296 305 308 314 316 313 307 311 299 295
196 192 202 204 192 181 180 185 179 180 210 221 219 222 206 224 227 214 232 248 240 240 249 251 248 258 275 282 289 296 301 306 308 305 304 306 302 291
201 195 202 205 198 190 184 186 191 181 212 253 250 227 212 216 230 229 230 229 231 243 249 250 253 257 265 274 278 286 290 296 300 300 300 300 304 291
200 199 202 202 208 194 187 196 203 195 191 227 252 229 234 218 217 226 244 255 236 250 251 254 259 262 263 266 273 280 284 287 292 293 293 297 301 292
202 202 203 200 209 198 194 200 206 207 193 202 231 236 243 218 212 241 243 255 263 255 246 253 265 265 263 266 268 271 276 279 283 286 291 297 300 295
209 206 207 208 209 202 203 204 199 197 189 197 218 227 232 217 199 217 250 259 265 264 248 261 268 267 268 270 269 269 271 273 277 282 287 293 295 295
211 211 214 218 218 209 208 200 193 197 197 200 209 221 225 205 216 214 245 270 278 247 239 250 253 247 248 259 261 265 271 271 272 275 279 284 289 296
206 211 215 223 219 221 226 221 207 199 202 206 211 216 222 216 214 217 222 242 262 234 232 254 234 244 247 238 260 269 272 275 273 271 276 285 291 293
201 205 216 221 214 204 218 227 229 234 228 217 213 219 220 213 206 214 222 231 247 240 234 257 237 247 252 258 261 263 268 273 276 278 282 285 287 289
203 204 210 209 211 206 203 209 223 230 235 231 226 230 230 215 209 218 224 239 276 259 219 245 244 248 266 251 255 257 261 266 269 274 279 283 288 289
211 212 211 207 213 214 205 206 220 237 249 244 243 243 245 244 231 196 197 217 255 255 224 225 238 266 264 249 250 253 261 266 273 276 277 281 289 293
211 209 219 216 213 215 206 201 214 224 221 231 241 251 245 238 235 224 207 214 234 243 206 200 233 255 272 252 239 248 254 265 271 275 280 282 286 293
207 210 216 221 219 218 218 210 219 217 199 205 217 227 230 227 226 227 220 208 219 243 213 193 220 224 233 271 266 251 244 257 264 270 274 279 282 281
214 217 209 215 217 218 222 219 219 212 186 193 209 229 234 235 236 232 236 232 230 239 223 200 209 214 218 251 263 253 256 253 263 272 268 273 276 278
217 222 215 214 217 218 223 221 211 189 184 202 221 240 246 240 233 236 246 237 259 254 229 223 212 215 220 236 244 249 269 265 247 252 260 263 269 275
243 234 231 224 219 214 216 217 200 190 195 209 219 234 236 229 232 229 229 222 242 274 256 237 225 207 224 242 230 246 242 236 245 260 271 275 273 264
175 167 169 182 181 175 178 186 189 198 213 212 216 231 231 233 244 234 225 226 232 244 258 262 272 248 240 235 237 238 238 249 248 254 268 277 269 255
178 154 172 183 190 193 196 205 208 209 208 211 216 227 231 231 243 247 241 229 233 235 236 236 254 305 307 281 233 229 234 247 251 256 261 271 275 268
89 127 164 187 198 199 203 206 219 221 205 208 221 229 233 239 240 240 238 235 236 233 233 222 218 222 258 276 266 224 233 248 254 264 257 260 265 272
51 63 106 171 194 203 212 221 221 215 209 213 222 231 233 240 248 244 238 236 239 241 239 232 225 224 233 248 262 272 251 237 242 255 270 283 278 280
36 22 17 323 254 217 219 215 216 220 220 220 229 234 238 236 245 246 242 250 255 243 239 243 247 251 262 258 270 275 265 257 255 250 254 277 287 285
353 342 334 317 288 259 231 212 210 219 225 228 233 239 245 243 246 246 242 242 247 251 255 259 243 232 234 239 254 267 282 297 294 287 267 255 244 248
316 311 301 294 278 259 240 229 224 235 237 237 240 244 244 245 251 250 246 246 247 249 255 255 254 255 254 243 247 256 262 277 289 304 299 295 280 274